Home   Weather   Sidney   Past weeks

Flag for Canada Past Weather in Sidney, British Columbia, Canada — Yesterday and Last 2 Weeks

Now
50 °F

Partly sunny.


Feels Like: 48 °F
Forecast: 47 / 63 °F
Wind: 6 mph from West

Location: Victoria Int. Airportb. C.

Current Time: Sep 29, 2016 at 10:01:34 AM

Latest Report: Sep 29, 2016 at 9:00 AM


Visibility: 30 mi

Pressure: 30.09 "Hg

Humidity: 88%

Dew Point: 46 °F

Location of SidneyLocation

Past Weather in Sidney — Graph

°F

Sidney Temperature Yesterday

Maximum temperature yesterday: 64 °F (at 1:00 PM)
Minimum temperature yesterday: 46 °F (at 10:00 PM)
Average temperature yesterday: 55 °F

High & Low Weather Summary for the Past Weeks

 TemperatureHumidityPressure
High72 °F (Sep 21, 3:00 PM)100% (Sep 16, 7:00 AM)30.43 "Hg (Sep 16, 7:00 AM)
Low45 °F (Sep 29, 2:00 AM)33% (Sep 21, 6:00 PM)29.79 "Hg (Sep 17, 10:00 AM)
Average57 °F79%30.09 "Hg
* Reported Sep 14 9:00 AM — Sep 29 9:00 AM, Sidney, Weather by CustomWeather, © 2016

Note: Actual official high and low records may vary slightly from our data, if they occured in-between our weather recording intervals... More about our weather records

Advertising

Sidney Weather History for the Previous 24 Hours

Scroll right to see more
 ConditionsComfort  
Time TempWeatherWind HumidityBarometerVisibility
9:00 AM
Thu, Sep 29
50 °FPartly sunny.6 mph88%30.09 "Hg30 mi
8:00 AM46 °FPartly sunny.5 mph93%30.08 "Hg30 mi
7:00 AM45 °FPassing clouds.5 mph100%30.07 "Hg30 mi
6:00 AM45 °FPassing clouds.3 mph93%30.07 "Hg30 mi
5:00 AM45 °FClear.5 mph93%30.06 "Hg30 mi
4:00 AM46 °FClear.5 mph93%30.06 "Hg30 mi
3:00 AM45 °FClear.6 mph93%30.06 "Hg30 mi
2:00 AM45 °FClear.5 mph93%30.06 "Hg30 mi
1:00 AM46 °FClear.5 mph100%30.05 "Hg30 mi
12:00 AM46 °FClear.5 mph93%30.05 "Hg30 mi
11:00 PM
Wed, Sep 28
46 °FClear.No wind87%30.06 "Hg30 mi
10:00 PM46 °FClear.2 mph93%30.05 "Hg30 mi
9:00 PM50 °FClear.No wind82%30.04 "Hg30 mi
8:00 PM55 °FPassing clouds.2 mph77%30.04 "Hg30 mi
7:00 PM57 °FPassing clouds.3 mph67%30.03 "Hg30 mi
6:00 PM61 °FPassing clouds.6 mph63%30.04 "Hg30 mi
5:00 PM63 °FPassing clouds.5 mph59%30.05 "Hg30 mi
4:00 PM63 °FPassing clouds.6 mph59%30.06 "Hg30 mi
3:00 PM63 °FPassing clouds.6 mph59%30.08 "Hg30 mi
2:00 PM64 °FSunny.8 mph52%30.09 "Hg30 mi
1:00 PM64 °FSunny.7 mph52%30.11 "Hg30 mi
12:00 PM61 °FPassing clouds.5 mph55%30.12 "Hg30 mi
11:00 AM59 °FPassing clouds.7 mph55%30.13 "Hg30 mi
10:00 AM57 °FPassing clouds.8 mph55%30.14 "Hg30 mi
Weather by CustomWeather, © 2016

See weather overviewHow to use our weather pages